Weather in Hammerfest

Norway     70°40′05″N   23°41′47″E
temp.,
°C
wind,
m/s
gust,
m/s
humid.,
%
clouds,
%
prec.,
mm/h
press.,
hPa
HPBL,
m
3 august, tue
tue323:00+9wsw8128098 0.1 1004606
02:00+8wsw10128574 0.3 1006804
05:00+9wsw7108048 0.1 1007648
08:00+9wsw58737 0.2 1008577
11:00+10wnw346811 0.0 1008567
14:00+10ne226725 0.0 1009529
17:00+10nne226986 0.0 1008358
20:00+9nne3375100 0.0 1009165
4 august, wed
wed423:00+8nne228195 0.0 100838
02:00+8wnw237899 0.1 1008201
05:00+9nw5886100 0.1 1007490
08:00+9nw71083100 0.3 1006618
11:00+9nw81182100 0.2 1006647
14:00+9nw81183100 0.2 1006683
17:00+9wnw8108648 0.1 1007631
20:00+9wnw79897 0.1 1007555
5 august, thu
thu523:00+8w58918 0.0 1008344
02:00+8w579179 0.0 1008253
05:00+9w479172 0.1 1009336
08:00+10wsw4791100 0.4 1010356
11:00+11wsw5884100 0.6 1010455
14:00+11ssw458393 1.2 1011133
17:00+12wsw467697 0.3 1012424
20:00+11nne118193 0.3 101220
6 august, fri
fri623:00+10n1187100 0.2 101320
02:00+10sse2288100 0.4 101323
05:00+10wsw0189100 0.2 101412
08:00+11se118667 0.4 1015144
11:00+13ese227512 0.0 1016294
14:00+14ene44695 0.0 1015300
17:00+15e456552 0.0 1015614
20:00+14ese4470100 0.0 101544
7 august, sat
sat723:00+13se4473100 0.0 101426
02:00+13s4472100 0.0 101524
05:00+13s3377100 0.0 101525
08:00+14ssw1173100 0.0 101683
11:00+14nw337568 0.0 1017139
14:00+13n12735 0.5 1019179
17:00+13ne237767 0.0 1020120
20:00+12ene338069 0.0 102066